Weather History for K04W - August, 2014

Change the Weather History Date:

Saturday, August 9, 2014

  Actual Average (KJMR) Record (KJMR)
Temperature  
Mean Temperature 66 °F -  
Max Temperature 80 °F 80 °F 94 °F (1944)
Min Temperature 53 °F 52 °F 38 °F (1982)
Cooling Degree Days 2    
Growing Degree Days 16 (Base 50)    
Moisture  
Dew Point 59 °F    
Average Humidity 81    
Maximum Humidity 100    
Minimum Humidity 48    
Precipitation  
Precipitation 0.00 in - - ()
Sea Level Pressure  
Sea Level Pressure 30.11 in    
Wind  
Wind Speed 2 mph (ESE)    
Max Wind Speed 9 mph    
Max Gust Speed -    
Visibility 9 miles    
Events      
Averages and records for this station are not official NWS values.
T = Trace of Precipitation, MM = Missing Value Source: NWS Daily Summary

Daily Weather History Graph

Daily Weather History Graph

Search for Another Location

Airport or City:

Trip Planner

Search our weather history database for the weather conditions in past years. The results will help you decide how hot, cold, wet, or windy it might be!

Date:

Astronomy

Aug. 09, 2014 Rise Set
Actual Time 6:03 AM CDT 8:29 PM CDT
Civil Twilight 5:30 AM CDT 9:02 PM CDT
Nautical Twilight 4:48 AM CDT 9:44 PM CDT
Astronomical Twilight 4:00 AM CDT 10:31 PM CDT
Moon 7:29 PM CDT (8/9) 4:44 AM CDT (8/9)
Length of Visible Light 15h 32m
Length of Day
14h 25m
Waxing Gibbous, 98% of the Moon is Illuminated
Aug 9
Waxing Gibbous
Aug 10
Full
Aug 17
Last Quarter
Aug 25
New
Sep 2
First Quarter

Hourly Weather History & Observations

Time (CDT) Temp. Heat Index Dew Point Humidity Pressure Visibility Wind Dir Wind Speed Gust Speed Precip Events Conditions
12:18 AM 55.4 °F - 55.4 °F 100% 30.11 in 10.0 mi Calm Calm - N/A   Clear
12:39 AM 55.4 °F - 55.4 °F 100% 30.11 in 10.0 mi Calm Calm - N/A   Clear
12:58 AM 55.4 °F - 55.4 °F 100% 30.11 in 10.0 mi Calm Calm - N/A   Clear
1:18 AM 55.4 °F - 55.4 °F 100% 30.11 in 10.0 mi Calm Calm - N/A   Clear
1:39 AM 55.4 °F - 55.4 °F 100% 30.11 in 10.0 mi Calm Calm - N/A   Clear
1:58 AM 55.4 °F - 55.4 °F 100% 30.10 in 10.0 mi Calm Calm - N/A   Clear
2:19 AM 53.6 °F - 53.6 °F 100% 30.10 in 7.0 mi Calm Calm - N/A   Clear
2:39 AM 53.6 °F - 53.6 °F 100% 30.10 in 7.0 mi North 3.5 mph - N/A   Clear
2:58 AM 53.6 °F - 53.6 °F 100% 30.10 in 10.0 mi Calm Calm - N/A   Clear
3:19 AM 55.4 °F - 53.6 °F 94% 30.11 in 7.0 mi Calm Calm - N/A   Clear
3:39 AM 53.6 °F - 53.6 °F 100% 30.11 in 7.0 mi Calm Calm - N/A   Clear
3:58 AM 53.6 °F - 53.6 °F 100% 30.11 in 7.0 mi Calm Calm - N/A   Clear
4:19 AM 53.6 °F - 53.6 °F 100% 30.12 in 10.0 mi North 3.5 mph - N/A   Clear
4:39 AM 53.6 °F - 53.6 °F 100% 30.12 in 10.0 mi Calm Calm - N/A   Clear
4:58 AM 53.6 °F - 53.6 °F 100% 30.12 in 7.0 mi NNE 3.5 mph - N/A   Clear
5:19 AM 53.6 °F - 53.6 °F 100% 30.12 in 7.0 mi NNE 3.5 mph - N/A   Scattered Clouds
5:39 AM 53.6 °F - 53.6 °F 100% 30.12 in 7.0 mi Calm Calm - N/A   Clear
5:58 AM 53.6 °F - 53.6 °F 100% 30.12 in 7.0 mi Calm Calm - N/A   Scattered Clouds
6:19 AM 53.6 °F - 53.6 °F 100% 30.12 in 5.0 mi Calm Calm - N/A   Scattered Clouds
6:39 AM 53.6 °F - 53.6 °F 100% 30.12 in 5.0 mi North 3.5 mph - N/A   Clear
6:58 AM 55.4 °F - 55.4 °F 100% 30.13 in 10.0 mi NNE 3.5 mph - N/A   Clear
7:19 AM 59.0 °F - 57.2 °F 94% 30.13 in 10.0 mi Calm Calm - N/A   Mostly Cloudy
7:38 AM 59.0 °F - 57.2 °F 94% 30.14 in 10.0 mi Calm Calm - N/A   Mostly Cloudy
7:59 AM 60.8 °F - 59.0 °F 94% 30.14 in 10.0 mi ENE 3.5 mph - N/A   Scattered Clouds
8:19 AM 62.6 °F - 59.0 °F 88% 30.14 in 10.0 mi Calm Calm - N/A   Scattered Clouds
8:38 AM 64.4 °F - 60.8 °F 88% 30.14 in 10.0 mi Calm Calm - N/A   Overcast
8:59 AM 64.4 °F - 60.8 °F 88% 30.14 in 10.0 mi Calm Calm - N/A   Mostly Cloudy
9:19 AM 68.0 °F - 60.8 °F 78% 30.14 in 10.0 mi Calm Calm - N/A   Mostly Cloudy
9:38 AM 68.0 °F - 62.6 °F 83% 30.14 in 10.0 mi Calm Calm - N/A   Mostly Cloudy
9:59 AM 69.8 °F - 60.8 °F 73% 30.14 in 10.0 mi SSE 3.5 mph - N/A   Scattered Clouds
10:19 AM 69.8 °F - 60.8 °F 73% 30.14 in 10.0 mi SSE 3.5 mph - N/A   Mostly Cloudy
10:38 AM 69.8 °F - 62.6 °F 78% 30.15 in 10.0 mi SSE 3.5 mph - N/A   Overcast
10:59 AM 71.6 °F - 62.6 °F 73% 30.14 in 10.0 mi Calm Calm - N/A   Mostly Cloudy
11:19 AM 71.6 °F - 62.6 °F 73% 30.14 in 10.0 mi East 3.5 mph - N/A   Scattered Clouds
11:38 AM 73.4 °F - 62.6 °F 69% 30.14 in 10.0 mi SSE 3.5 mph - N/A   Scattered Clouds
12:19 PM 75.2 °F - 62.6 °F 65% 30.13 in 10.0 mi SSE 4.6 mph - N/A   Clear
12:38 PM 77.0 °F - 62.6 °F 61% 30.13 in 10.0 mi SE 4.6 mph - N/A   Clear
12:59 PM 77.0 °F - 62.6 °F 61% 30.13 in 10.0 mi ESE 5.8 mph - N/A   Clear
1:18 PM 78.8 °F - 64.4 °F 61% 30.12 in 10.0 mi East 4.6 mph - N/A   Clear
1:39 PM 78.8 °F - 62.6 °F 57% 30.12 in 10.0 mi ESE 6.9 mph - N/A   Scattered Clouds
1:59 PM 78.8 °F - 62.6 °F 57% 30.12 in 10.0 mi East 8.1 mph - N/A   Mostly Cloudy
2:18 PM 77.0 °F - 60.8 °F 57% 30.12 in 10.0 mi ESE 4.6 mph - N/A   Overcast
2:39 PM 77.0 °F - 60.8 °F 57% 30.11 in 10.0 mi SE 4.6 mph - N/A   Overcast
2:59 PM 78.8 °F - 59.0 °F 51% 30.11 in 10.0 mi SSE 6.9 mph - N/A   Overcast
3:18 PM 78.8 °F - 59.0 °F 51% 30.11 in 10.0 mi SSE 6.9 mph - N/A   Overcast
3:59 PM 78.8 °F - 59.0 °F 51% 30.10 in 10.0 mi SE 9.2 mph - N/A   Scattered Clouds
4:18 PM 80.6 °F 81.5 °F 60.8 °F 51% 30.10 in 10.0 mi East 9.2 mph - N/A   Overcast
4:59 PM 80.6 °F 81.1 °F 59.0 °F 48% 30.09 in 10.0 mi ESE 6.9 mph - N/A   Clear
5:18 PM 78.8 °F - 59.0 °F 51% 30.09 in 10.0 mi ESE 8.1 mph - N/A   Mostly Cloudy
5:39 PM 78.8 °F - 59.0 °F 51% 30.09 in 10.0 mi SE 8.1 mph - N/A   Mostly Cloudy
5:59 PM 77.0 °F - 59.0 °F 54% 30.09 in 10.0 mi SE 3.5 mph - N/A   Scattered Clouds
6:19 PM 77.0 °F - 60.8 °F 57% 30.09 in 10.0 mi SE 3.5 mph - N/A   Scattered Clouds
6:39 PM 77.0 °F - 60.8 °F 57% 30.08 in 10.0 mi Calm Calm - N/A   Mostly Cloudy
6:59 PM 75.2 °F - 60.8 °F 61% 30.08 in 10.0 mi SSE 3.5 mph - N/A   Mostly Cloudy
7:19 PM 73.4 °F - 60.8 °F 65% 30.08 in 10.0 mi Calm Calm - N/A   Mostly Cloudy
7:39 PM 73.4 °F - 60.8 °F 65% 30.08 in 10.0 mi Calm Calm - N/A   Overcast
7:58 PM 73.4 °F - 60.8 °F 65% 30.08 in 10.0 mi East 3.5 mph - N/A   Overcast
8:19 PM 71.6 °F - 60.8 °F 69% 30.08 in 10.0 mi Calm Calm - N/A   Mostly Cloudy
8:58 PM 68.0 °F - 64.4 °F 88% 30.08 in 10.0 mi Calm Calm - N/A   Scattered Clouds
9:19 PM 66.2 °F - 64.4 °F 94% 30.08 in 10.0 mi Calm Calm - N/A   Clear
9:39 PM 66.2 °F - 64.4 °F 94% 30.09 in 10.0 mi Calm Calm - N/A   Clear
10:39 PM 62.6 °F - 62.6 °F 100% 30.09 in 10.0 mi Calm Calm - N/A   Clear
10:58 PM 62.6 °F - 60.8 °F 94% 30.08 in 10.0 mi Calm Calm - N/A   Clear
11:19 PM 60.8 °F - 60.8 °F 100% 30.09 in 10.0 mi Calm Calm - N/A   Clear
11:39 PM 60.8 °F - 60.8 °F 100% 30.09 in 7.0 mi Calm Calm - N/A   Clear
11:58 PM 60.8 °F - 60.8 °F 100% 30.09 in 10.0 mi Calm Calm - N/A   Clear